TimeMDT,TemperatureF,Dew PointF,Humidity,Sea Level PressureIn,VisibilityMPH,Wind Direction,Wind SpeedMPH,Gust SpeedMPH,PrecipitationIn,Events,Conditions,WindDirDegrees,DateUTC
12:53 AM,53.1,7.0,16,29.58,10.0,SW,24.2,-,N/A,,Clear,230,2013-04-17 06:53:00
1:53 AM,51.1,7.0,17,29.56,10.0,SW,21.9,-,N/A,,Clear,230,2013-04-17 07:53:00
2:53 AM,48.0,7.0,19,29.57,10.0,WSW,18.4,-,N/A,,Clear,240,2013-04-17 08:53:00
3:53 AM,48.0,9.0,21,29.54,10.0,WSW,20.7,-,N/A,,Clear,250,2013-04-17 09:53:00
4:53 AM,48.0,10.9,22,29.52,10.0,WSW,20.7,-,N/A,,Clear,250,2013-04-17 10:53:00
5:53 AM,46.0,12.9,26,29.53,10.0,WSW,20.7,-,N/A,,Clear,250,2013-04-17 11:53:00
6:53 AM,44.1,14.0,30,29.57,10.0,WSW,11.5,-,N/A,,Clear,240,2013-04-17 12:53:00
7:53 AM,51.1,16.0,25,29.56,10.0,WSW,19.6,-,N/A,,Clear,240,2013-04-17 13:53:00
8:53 AM,53.1,16.0,23,29.55,10.0,SW,24.2,-,N/A,,Clear,230,2013-04-17 14:53:00
9:53 AM,57.9,18.0,21,29.53,10.0,WSW,27.6,38.0,N/A,,Clear,250,2013-04-17 15:53:00
10:53 AM,60.1,19.9,21,29.51,10.0,SW,33.4,41.4,N/A,,Clear,230,2013-04-17 16:53:00
11:53 AM,61.0,19.0,20,29.49,10.0,WSW,34.5,43.7,N/A,,Clear,240,2013-04-17 17:53:00
12:53 PM,62.1,16.0,17,29.45,10.0,WSW,42.6,56.4,N/A,,Clear,240,2013-04-17 18:53:00
1:53 PM,63.0,17.1,17,29.44,10.0,West,20.7,41.4,N/A,,Partly Cloudy,260,2013-04-17 19:53:00
2:53 PM,60.1,19.9,21,29.45,10.0,West,19.6,35.7,N/A,,Scattered Clouds,260,2013-04-17 20:53:00
3:53 PM,52.0,27.0,38,29.49,10.0,NW,34.5,46.0,N/A,,Partly Cloudy,310,2013-04-17 21:53:00
4:53 PM,45.0,25.0,46,29.56,10.0,WNW,31.1,50.6,N/A,,Mostly Cloudy,300,2013-04-17 22:53:00
5:53 PM,37.9,27.0,65,29.67,10.0,NW,26.5,38.0,0.00,Rain,Light Rain,310,2013-04-17 23:53:00
6:10 PM,35.6,28.4,75,29.78,2.0,NW,27.6,36.8,0.00,Snow,Light Snow,310,2013-04-18 00:10:00
6:17 PM,35.6,28.4,75,29.79,1.8,NW,26.5,33.4,0.00,Snow,Light Snow,310,2013-04-18 00:17:00
6:24 PM,35.6,28.4,75,29.79,2.5,NW,20.7,33.4,0.00,Snow,Light Snow,310,2013-04-18 00:24:00
6:53 PM,36.0,26.1,67,29.72,10.0,WNW,19.6,-,0.00,,Overcast,300,2013-04-18 00:53:00
7:53 PM,37.0,23.0,57,29.69,10.0,NW,20.7,28.8,0.00,,Overcast,310,2013-04-18 01:53:00
8:53 PM,33.1,27.0,78,29.76,10.0,NW,16.1,23.0,N/A,,Clear,310,2013-04-18 02:53:00
9:53 PM,32.0,24.1,73,29.77,10.0,WNW,11.5,-,N/A,,Clear,300,2013-04-18 03:53:00
10:53 PM,33.1,15.1,48,29.78,10.0,WNW,17.3,-,N/A,,Partly Cloudy,290,2013-04-18 04:53:00
11:53 PM,32.0,12.9,45,29.78,10.0,WNW,19.6,24.2,N/A,,Partly Cloudy,290,2013-04-18 05:53:00